This is the latest recevied weather packets stored in our database for station/object SP9KB-13. If no packets are shown the sender has not sent any weather packets the latest 10 day(s).
| Time | Temp. | Humidity | Pressure | Rain* | Wind** | Luminosity | Snow |
|---|---|---|---|---|---|---|---|
| 1778248194 | 15° C | 85% | 997.7 hPa | 0 mm | - | - | - |
| 1778247894 | 15° C | 87% | 997.9 hPa | 0 mm | - | - | - |
| 1778247594 | 14.44° C | 85% | 998 hPa | 0 mm | - | - | - |
| 1778247293 | 15° C | 88% | 997.9 hPa | 0 mm | - | - | - |
| 1778246692 | 15° C | 86% | 997.8 hPa | 0 mm | - | - | - |
| 1778246091 | 15° C | 84% | 998.1 hPa | 0 mm | - | - | - |
| 1778245791 | 15° C | 88% | 997.9 hPa | 0 mm | - | - | - |
| 1778245490 | 15° C | 89% | 998 hPa | 1.27 mm | - | - | - |
| 1778245190 | 14.44° C | 86% | 998.2 hPa | 1.27 mm | - | - | - |
| 1778244589 | 15.56° C | 78% | 998.3 hPa | 0 mm | - | - | - |
| 1778243988 | 15° C | 79% | 998.3 hPa | 0 mm | - | - | - |
| 1778243687 | 15° C | 79% | 998 hPa | 0 mm | - | - | - |
| 1778243387 | 15° C | 78% | 998 hPa | 0 mm | - | - | - |
| 1778243086 | 15° C | 78% | 998.2 hPa | 0 mm | - | - | - |
| 1778242785 | 15° C | 77% | 998 hPa | 0 mm | - | - | - |
| 1778242485 | 15° C | 79% | 997.9 hPa | 0 mm | - | - | - |
| 1778242184 | 15.56° C | 75% | 998 hPa | 0 mm | - | - | - |
| 1778241884 | 15° C | 81% | 998.1 hPa | 0 mm | - | - | - |
| 1778241583 | 14.44° C | 83% | 998.1 hPa | 0 mm | - | - | - |
| 1778241283 | 14.44° C | 82% | 998 hPa | 0 mm | - | - | - |
| 1778240982 | 14.44° C | 84% | 998.1 hPa | 0 mm | - | - | - |
| 1778240681 | 14.44° C | 87% | 998.2 hPa | 0 mm | - | - | - |
| 1778240381 | 13.33° C | 88% | 998 hPa | 0 mm | - | - | - |
| 1778240080 | 13.33° C | 89% | 998 hPa | 0 mm | - | - | - |
| 1778239780 | 13.33° C | 87% | 998.2 hPa | 0 mm | - | - | - |
* Rain latest hour (hover to see other rain measurements)
** Current wind speed in m/s (hover to see current wind gust speed)